sat.trackr.live / text

‹ back to catalog

ONEWEB-0043

NORAD 45149 · 2020-008U

PAYLOAD ACTIVE UNKNOWN

§ Identity

Operator
Country
UK
Launch date
2020-02-06
Launch site
TYMSC
Launch vehicle
Mass (kg)
RCS (m²)

Purposes: comms

External: N2YO · Heavens-Above · Gunter

§ Orbital elements

Epoch: 2026-09-13T02:11:02.871744Z

Period
109.89 min
Inclination
87.8909°
Eccentricity
0.0002227
Mean motion
13.10375626 rev/d
Perigee alt
1,220.0 km
Apogee alt
1,223.4 km
Semi-major
7,599.8 km
B*
1.0545e-3
RAAN
18.7664°
Arg perigee
105.9306°
Mean anomaly
254.2067°
Rev number
31,969

§ Raw data

ONEWEB-00431 45149U 20008U   26256.09100546  .00000381  00000+0  10545-2 0  99972 45149  87.8909  18.7664 0002227 105.9306 254.2067 13.10375626319693

JSON: /api/v1/satellites/45149 · /tle

For live sub-satellite position, see the globe view (requires WebGL).

§ Visibility from observer

Set your observer location to see the next 7 days of passes ≥ 10°. The values pass through the URL so the page stays shareable.

No JS? Fill the form by hand. The geolocation button needs JavaScript.